Location: ???????
(55.4362°N, 38.1183°E)
Time: 17:33:26
(UTC+00:00)

In-Cosmos 22 Rocket - Pass Details

Date: 17 June 2021
Orbit: 790 x 888 km, 81.2° (Epoch: 30 July)

Event Time Altitude Azimuth Distance (km) Brightness Sun altitude
Exits shadow 22:27:58 13° 187° (S) 2,266 5.8 -10.1°
Maximum altitude 22:33:01 79° 101° (ESE) 853 4.2 -10.0°
Drops below altitude 10° 22:38:30 10° 16° (NNE) 2,421 8.3 -9.8°
Sets 22:40:52 0° 16° (NNE) 3,344 9.7 -9.7°
